This is the latest recevied weather packets stored in our database for station/object VK5GR-12. If no packets are shown the sender has not sent any weather packets the latest 10 day(s).
| Time | Temp. | Humidity | Pressure | Rain* | Wind** | Luminosity | Snow |
|---|---|---|---|---|---|---|---|
| 1777482512 | 22.78° C | 34% | 1021.8 hPa | 0 mm | - | 0 W/m² | - |
| 1777481610 | 22.78° C | 34% | 1021.7 hPa | 0 mm | - | 0 W/m² | - |
| 1777480706 | 22.78° C | 34% | 1021.9 hPa | 0 mm | - | 0 W/m² | - |
| 1777479801 | 22.78° C | 34% | 1022.1 hPa | 0 mm | - | 0 W/m² | - |
| 1777478898 | 22.78° C | 34% | 1022.1 hPa | 0 mm | - | 0 W/m² | - |
| 1777477994 | 22.78° C | 34% | 1022.2 hPa | 0 mm | - | 0 W/m² | - |
| 1777477088 | 22.78° C | 34% | 1022.2 hPa | 0 mm | - | 0 W/m² | - |
| 1777476185 | 22.78° C | 33% | 1022.4 hPa | 0 mm | - | 0 W/m² | - |
| 1777475285 | 23.33° C | 34% | 1022.6 hPa | 0 mm | - | 0 W/m² | - |
| 1777474379 | 23.33° C | 33% | 1022.5 hPa | 0 mm | - | 0 W/m² | - |
| 1777473476 | 23.33° C | 33% | 1022.7 hPa | 0 mm | - | 0 W/m² | - |
| 1777472570 | 23.89° C | 33% | 1022.8 hPa | 0 mm | - | 0 W/m² | - |
| 1777471666 | 23.89° C | 33% | 1022.6 hPa | 0 mm | - | 0 W/m² | - |
| 1777470762 | 23.89° C | 33% | 1022.9 hPa | 0 mm | - | 0 W/m² | - |
| 1777469857 | 23.89° C | 33% | 1022.8 hPa | 0 mm | - | 0 W/m² | - |
| 1777468954 | 23.89° C | 34% | 1022.8 hPa | 0 mm | - | 0 W/m² | - |
| 1777468050 | 23.33° C | 35% | 1023 hPa | 0 mm | - | 0 W/m² | - |
| 1777467148 | 23.33° C | 36% | 1023 hPa | 0 mm | - | 0 W/m² | - |
| 1777466246 | 22.78° C | 37% | 1023.3 hPa | 0 mm | - | 0 W/m² | - |
| 1777465345 | 22.78° C | 38% | 1023.1 hPa | 0 mm | - | 0 W/m² | - |
| 1777464441 | 21.67° C | 41% | 1023.2 hPa | 0 mm | - | 0 W/m² | - |
| 1777463538 | 21.67° C | 41% | 1023.3 hPa | 0 mm | - | 0 W/m² | - |
| 1777462638 | 21.67° C | 40% | 1023.3 hPa | 0 mm | - | 0 W/m² | - |
| 1777461738 | 21.11° C | 41% | 1023.2 hPa | 0 mm | - | 0 W/m² | - |
| 1777460836 | 21.11° C | 41% | 1023.2 hPa | 0 mm | - | 0 W/m² | - |
* Rain latest hour (hover to see other rain measurements)
** Current wind speed in m/s (hover to see current wind gust speed)